RH
91 95 96 96 90 81 78 67 63 61 59 58 48 42 45 44 30 33 17 15 22 27 28 30 32 22 15 12 10 10 14 13 9 8 9 10 12 9 12 14 18 22 25 28 45
84 89 92 93 80 82 83 72 67 66 68 57 53 46 42 36 58 24 19 18 22 23 33 23 24 17 14 12 11 13 12 10 7 7 9 9 11 10 10 13 16 18 22 37 45
71 75 89 96 92 88 86 71 73 70 65 64 60 59 40 43 30 13 22 24 31 31 32 18 18 16 15 11 11 12 13 9 8 8 8 10 10 9 11 13 14 18 20 32 40
74 68 80 92 92 90 78 70 69 66 64 66 65 60 39 59 15 19 10 15 36 35 34 18 17 16 16 13 10 13 10 9 7 8 10 11 10 12 12 13 18 21 24 31 34
68 72 83 87 90 79 71 67 62 60 61 66 77 91 55 30 26 14 11 20 42 40 26 18 17 16 16 11 9 11 10 8 8 8 10 11 12 12 12 11 20 23 32 31 32
69 84 75 71 75 75 69 62 60 59 61 68 76 96 54 41 19 15 24 12 15 30 24 17 17 13 12 10 10 9 11 10 9 9 9 12 13 12 13 13 21 27 33 33 34
84 84 78 75 76 73 65 62 58 57 60 62 94 84 46 29 16 20 27 22 13 11 16 23 18 13 12 13 11 11 13 12 10 10 10 11 13 13 10 13 21 27 31 34 37
79 82 80 82 83 72 65 59 60 58 62 67 85 70 40 19 21 25 28 26 25 15 16 20 17 20 16 13 13 15 14 16 11 10 10 11 17 11 11 18 20 24 28 34 35
77 83 80 83 82 69 64 53 60 66 72 74 78 56 32 23 22 19 29 27 25 14 15 18 16 21 19 20 21 18 19 16 15 10 10 13 17 11 15 19 18 20 26 30 34
74 86 87 85 77 69 60 54 58 74 71 60 49 59 35 14 20 30 33 25 36 18 15 15 20 24 21 20 26 20 19 17 15 12 12 11 15 13 13 16 19 19 22 27 31
75 89 87 85 73 67 74 44 34 46 33 31 26 35 23 25 24 25 40 38 32 27 19 16 22 24 23 20 17 16 16 15 13 10 12 13 12 12 11 11 14 21 21 25 28
71 75 85 79 69 64 68 44 52 59 70 37 34 35 31 28 35 24 32 35 46 50 22 24 25 16 14 15 15 16 17 17 13 11 14 12 10 10 10 11 12 17 20 23 27
70 73 76 74 67 76 53 52 54 60 57 34 27 30 31 30 33 26 25 26 51 58 50 28 18 19 18 18 17 18 19 18 17 12 14 13 12 11 10 10 11 14 15 17 24
69 74 72 70 72 57 49 50 56 62 68 20 22 28 31 29 36 23 16 27 33 46 44 40 16 21 22 21 20 24 16 16 16 17 21 12 18 12 11 11 13 14 14 16 20
68 74 68 73 68 63 52 58 59 68 46 13 25 25 26 30 24 23 16 17 33 32 30 33 23 20 24 21 19 22 16 16 18 20 20 18 18 15 11 12 11 11 12 15 18
73 72 75 57 79 61 56 67 59 88 38 18 19 22 22 22 28 22 29 21 18 25 22 25 20 23 27 19 16 15 18 18 20 21 31 22 18 16 13 11 12 10 9 11 18
68 73 71 66 60 66 66 57 57 43 17 24 26 23 22 24 25 29 36 34 32 39 32 20 27 21 21 24 17 18 22 31 33 34 35 19 20 17 12 12 12 11 10 11 14
68 71 68 58 55 68 68 54 54 20 22 22 25 21 22 23 26 26 37 40 30 29 33 27 38 24 22 24 22 21 23 30 39 40 28 18 24 16 12 12 12 11 10 11 15
70 60 55 54 59 59 70 70 28 21 20 26 20 18 20 24 25 24 28 39 28 25 32 25 18 15 20 21 22 24 28 18 27 29 36 21 20 15 14 13 12 11 11 12 14
58 75 55 48 58 62 86 57 28 24 29 25 24 24 29 30 28 25 33 38 41 29 19 23 27 14 18 22 22 23 18 27 28 44 46 27 27 27 16 15 14 13 12 12 11
61 83 41 53 61 88 87 50 30 21 28 31 28 34 30 35 32 30 35 37 38 37 28 22 30 26 23 29 28 27 30 29 24 28 38 40 27 16 21 22 21 18 14 16 16
60 92 48 64 94 76 77 42 35 28 26 29 30 35 38 35 37 34 31 29 35 40 54 31 34 35 39 21 21 22 27 32 36 43 30 38 33 19 20 19 19 17 16 15 14
66 64 47 74 85 74 50 44 37 33 30 30 31 29 28 35 41 32 29 26 28 38 54 51 37 42 36 30 26 27 25 25 28 30 50 55 36 17 17 18 17 18 16 15 15
80 92 53 79 66 61 52 55 49 36 33 27 28 27 36 38 33 38 32 26 27 31 53 54 51 34 36 33 23 32 30 28 30 42 39 40 32 22 21 20 17 16 17 18 17
82 82 56 75 56 61 54 64 48 50 35 29 34 32 34 40 35 39 36 30 26 38 35 64 65 51 28 32 30 28 32 32 33 31 37 31 30 21 19 18 15 14 15 15 16
98 72 48 51 49 46 49 66 56 45 41 40 38 31 32 38 36 43 38 45 42 30 35 55 74 56 56 32 32 36 31 28 26 24 26 24 24 17 16 16 16 16 15 17 20
70 63 79 58 48 55 56 41 39 35 42 44 36 38 42 38 38 44 44 56 46 44 45 44 50 73 72 40 36 41 34 30 29 25 26 30 21 15 16 16 18 20 23 24 28
Wind_Speed
13 14 15 17 18 19 20 20 22 23 23 23 25 27 28 29 31 26 20 15 6 16 12 14 18 19 19 18 20 11 14 16 19 13 11 10 8 13 2 10 8 7 8 7 2
14 15 15 16 17 20 20 21 22 23 23 24 26 26 28 28 28 28 16 14 21 21 16 22 19 18 16 19 16 16 13 22 12 9 8 3 11 11 8 11 11 10 7 5 5
16 17 17 17 19 21 23 23 24 23 24 24 25 25 27 23 15 2 5 11 13 18 22 22 21 18 20 19 20 20 20 20 8 10 7 9 10 12 11 12 6 9 7 4 7
19 20 18 19 20 23 24 25 26 25 25 25 24 25 25 13 6 5 15 15 7 10 17 21 21 20 21 23 20 21 21 19 16 9 11 14 13 12 12 12 4 5 3 5 7
19 19 19 20 21 22 24 25 25 26 26 26 23 21 14 8 18 17 9 9 4 8 16 17 19 19 22 20 19 22 21 19 16 13 11 13 14 15 16 14 5 5 5 6 5
19 19 21 22 22 24 25 25 26 27 28 27 23 16 11 17 14 10 6 3 6 9 16 16 16 16 17 21 18 20 18 22 15 15 16 16 16 18 13 7 5 7 8 6 7
17 20 21 24 23 25 25 28 30 30 32 27 18 11 12 23 8 5 9 8 10 15 18 19 17 14 13 17 16 17 21 17 20 18 16 15 20 19 20 11 9 10 10 8 8
17 20 22 24 24 25 28 30 35 31 23 14 10 11 9 10 12 22 18 19 13 19 18 20 17 15 18 14 16 15 20 18 19 19 19 15 17 15 6 7 10 11 11 10 10
21 21 22 23 25 26 30 32 27 15 7 1 8 11 9 4 9 15 16 17 9 20 20 16 14 16 17 16 14 17 15 21 18 15 10 12 15 15 8 8 10 12 11 11 11
22 22 22 23 23 26 31 25 18 10 5 6 7 7 6 6 8 4 6 11 8 11 13 15 10 15 18 16 16 17 18 18 17 13 12 16 17 16 12 10 11 14 12 12 13
20 22 23 23 22 24 25 27 4 8 8 14 15 16 14 2 13 8 8 9 10 11 17 17 15 21 25 24 22 20 18 15 13 5 8 14 16 14 16 13 13 13 13 12 13
19 20 21 23 22 19 19 7 5 7 13 16 19 18 24 22 10 12 11 14 14 14 15 15 22 21 22 24 23 24 24 15 14 2 7 14 16 18 14 14 13 13 14 13 12
21 19 19 21 21 11 11 8 9 11 7 10 5 5 4 9 14 14 15 14 13 15 19 23 19 20 22 21 22 21 22 18 17 7 9 15 18 19 14 16 11 11 12 11 13
21 19 17 19 12 12 9 10 10 9 5 5 3 4 3 2 5 22 12 13 6 17 18 19 23 10 20 24 18 21 18 19 16 15 13 12 15 17 19 19 15 15 14 13 13
19 18 16 10 16 15 12 13 12 2 6 4 5 3 4 5 8 4 16 19 16 14 13 19 10 18 23 19 20 21 15 15 16 17 15 17 9 12 13 13 15 15 16 15 13
17 18 16 13 9 14 13 15 10 5 5 3 1 5 7 8 7 2 4 11 12 20 16 18 15 14 14 19 18 16 11 11 13 14 15 18 15 11 12 14 10 11 11 13 13
16 17 15 14 13 11 13 12 7 6 5 2 2 7 10 7 4 9 6 10 10 12 21 20 21 14 13 19 18 18 14 9 11 12 14 14 13 14 4 4 6 5 7 12 10
16 20 17 16 14 11 12 8 10 3 4 3 5 11 5 5 3 6 7 8 15 16 12 18 14 22 12 15 18 20 18 9 14 11 14 19 8 11 7 2 4 9 10 1 7
16 18 19 17 14 14 7 10 5 6 3 6 11 10 3 3 6 4 8 1 5 18 14 12 21 10 14 12 15 17 21 21 18 10 7 7 10 12 3 7 6 6 6 8 9
14 13 21 15 14 15 6 14 12 6 4 5 7 1 5 5 6 7 2 7 2 10 17 13 10 15 14 14 19 22 12 18 11 12 12 10 11 8 9 10 5 3 8 4 2
8 4 5 13 17 6 10 15 12 9 6 8 8 7 7 6 5 7 2 5 10 9 10 14 11 9 11 18 19 15 18 13 15 14 9 12 9 5 10 11 6 6 7 11 9
8 4 5 16 7 5 11 17 15 10 13 14 9 12 11 9 9 5 5 4 7 12 8 15 6 11 18 20 20 18 21 20 10 9 12 8 2 8 8 7 6 6 2 5 5
5 7 11 14 8 12 13 16 17 15 16 13 13 14 13 11 6 7 10 4 6 7 9 13 8 9 15 11 9 14 19 20 20 14 12 9 6 6 5 2 1 7 10 8 9
3 4 8 8 9 12 15 14 17 16 19 15 12 12 10 12 11 9 8 3 5 3 5 11 11 14 12 12 13 15 7 10 10 10 13 14 13 8 3 10 10 9 12 14 12
5 6 6 8 14 17 15 7 19 17 15 15 13 16 15 15 14 15 15 12 7 5 4 5 6 11 9 5 5 6 14 11 12 12 10 12 10 8 6 8 11 11 12 14 14
3 5 10 11 13 18 19 17 16 14 15 16 16 16 16 17 14 9 8 6 10 5 5 7 3 9 8 6 6 7 9 11 13 12 12 14 14 13 12 5 8 10 13 15 16
16 15 4 8 16 13 12 18 20 17 12 16 13 13 13 12 10 11 11 8 12 12 10 8 7 4 4 7 8 8 14 14 13 14 13 13 9 9 6 6 9 13 14 14 14
Wind_Direction
332 331 330 333 333 330 328 331 331 331 334 333 335 331 331 332 323 311 276 266 248 266 241 202 209 217 226 230 228 236 258 253 256 243 253 138 244 263 326 278 205 215 268 353 327
331 330 332 330 333 331 326 334 333 328 326 331 334 330 330 335 317 287 280 272 267 252 232 204 207 210 219 225 218 231 233 250 278 282 237 226 219 251 251 242 237 234 228 226 266
331 330 329 327 324 321 322 326 322 323 326 329 328 329 329 335 299 94 59 347 327 219 226 221 223 215 229 226 218 223 244 269 264 272 247 276 278 267 265 268 303 336 316 162 245
329 326 327 325 321 317 319 319 318 319 322 323 323 325 328 315 263 64 337 338 332 217 222 236 226 219 228 232 230 232 248 255 275 224 238 252 262 283 273 271 16 290 316 201 217
317 321 323 320 322 319 321 320 318 318 316 314 315 322 333 257 253 287 317 351 350 214 228 230 221 226 227 235 234 233 243 263 253 244 235 260 267 270 277 292 161 253 219 207 230
315 320 321 322 321 317 319 321 318 316 313 309 308 306 276 265 270 257 266 330 327 244 252 241 233 229 244 247 250 242 242 260 245 240 233 243 261 269 264 270 234 214 218 198 221
320 319 321 322 320 316 315 317 315 311 307 302 293 261 253 246 265 239 255 252 270 283 277 254 252 263 256 257 263 263 262 257 249 241 239 245 257 252 257 227 227 218 215 209 195
323 321 322 320 318 317 318 316 312 308 303 295 260 214 256 280 268 248 255 247 256 263 255 265 271 262 255 274 265 255 243 254 249 224 233 230 259 272 162 187 231 221 207 203 206
320 319 319 317 320 322 318 318 315 302 308 278 172 215 274 311 251 255 243 249 255 253 242 253 249 248 236 235 246 237 246 232 249 222 235 210 256 251 145 206 259 227 221 210 207
321 319 316 320 325 325 322 317 300 269 243 244 258 219 251 298 329 301 238 221 231 249 220 228 236 235 233 231 231 239 220 243 259 203 206 241 239 258 204 216 235 256 211 209 210
321 318 318 323 327 329 326 323 248 210 256 278 290 267 293 260 330 234 182 192 199 240 223 203 220 225 226 224 246 256 263 276 245 223 210 247 254 242 230 229 226 224 235 216 211
320 318 319 323 327 325 313 351 20 332 297 279 260 263 265 269 279 277 180 215 225 238 219 251 228 232 239 240 235 242 253 255 266 131 237 264 258 246 238 228 248 224 221 226 206
317 317 317 321 325 298 315 323 314 331 271 302 260 281 311 232 231 249 194 221 188 205 253 232 234 225 249 235 238 229 241 247 260 224 229 263 265 256 241 251 232 237 239 221 211
308 315 318 324 305 312 283 320 324 329 282 130 145 107 143 247 225 241 241 226 224 220 213 264 240 228 226 239 226 242 232 245 256 258 256 257 256 244 229 232 212 231 230 228 210
302 312 312 313 302 297 311 313 310 302 290 80 107 88 122 242 327 183 225 234 247 224 243 238 241 233 243 235 226 244 258 246 234 252 259 258 255 270 270 238 226 235 208 209 219
300 308 309 300 268 274 299 308 280 238 234 145 128 339 292 239 225 190 218 234 254 260 249 260 269 233 251 248 244 252 216 246 236 244 241 244 256 268 250 231 209 242 223 195 194
295 299 292 280 268 318 301 277 248 244 116 87 349 320 303 282 219 202 195 188 193 219 239 244 249 230 211 237 233 227 200 211 219 223 234 229 231 236 260 354 305 276 239 193 183
291 296 281 260 257 274 277 237 249 1 250 348 298 306 289 346 153 220 183 237 223 231 248 232 222 234 189 212 234 209 206 214 215 231 223 216 236 239 224 328 303 269 240 148 186
293 285 261 251 239 237 254 226 247 267 353 292 297 269 218 347 291 272 218 259 240 224 215 259 237 209 201 203 245 218 224 233 265 250 277 167 215 254 200 229 224 198 201 197 194
287 302 267 239 215 213 219 235 245 243 279 258 268 246 276 358 319 314 136 18 359 247 235 253 272 242 207 205 218 251 228 221 230 245 238 247 192 251 167 196 12 316 184 217 189
270 264 228 192 192 207 220 222 243 245 219 248 254 259 268 309 321 313 360 116 18 352 274 250 259 231 219 206 213 213 241 249 230 222 236 236 252 185 94 70 47 329 38 37 24
240 235 181 172 192 200 226 228 263 265 235 249 264 264 267 287 296 290 267 314 38 336 298 224 286 227 238 215 228 219 216 230 233 212 235 234 336 130 111 79 39 335 300 12 333
234 239 244 191 215 220 224 242 251 243 241 232 232 245 265 273 271 246 258 65 11 324 348 353 234 244 213 187 218 232 222 231 228 238 217 242 213 172 22 321 315 316 320 313 329
257 233 221 201 243 254 228 231 227 224 255 236 248 251 247 246 250 263 263 301 332 2 346 321 249 253 236 243 199 212 204 224 236 212 231 229 244 216 266 304 318 326 344 336 326
213 245 220 212 228 226 243 245 222 226 226 239 232 244 243 249 248 251 266 263 269 144 177 303 280 302 247 323 311 250 191 203 225 232 255 242 246 266 283 282 299 335 335 332 332
213 231 241 254 246 227 222 234 257 233 218 219 237 237 237 245 249 268 263 281 285 298 307 188 294 306 279 239 255 251 241 239 229 243 242 253 265 277 272 332 308 311 316 319 327
228 249 296 252 245 237 226 230 234 248 245 244 237 255 241 253 307 296 302 249 270 281 286 279 237 212 265 267 294 262 241 236 237 239 239 244 258 16 345 319 304 302 314 315 334